FALCON HEAVY R/B, 60134

Orbit data source: Space-Track

FALCON HEAVY R/B, 60134 is space debris in HEO originally from a launch on Tue, 25 Jun 2024 UTC launched from the Air Force Eastern Test Range (AFETR). Debris objects in space refer to the collection of defunct objects orbiting the Earth. Examples of debris include non-operational satellites, rocket bodies, and fragments generated from explosions, collisions, or faulty payload assembly.

Loading next visibility...
Identifier
60134, 2024-119B
Orbit
HEO
Country
Flag of USUS
Related business
Manufacturer
SpaceX
Mission
Spacecraft
Bus & Motor
F9ST2, Unknown motor
Mass
~4,000 kg wet, ~4,000 kg dry
Launch date (UTC)
2024-06-25 (2 years ago)
Launch vehicle
Unknown
Launch site
Air Force Eastern Test Range (AFETR)
Object type
Payload
Rocket body
Debris
Shape & HBR
Cyl, Unknown HBR
Radar Cross Section
49.816 m², Large (>1 m²)

Expand to show TLE details & history
Last TLE update: 2 days ago

TLE from 2 days ago
0 FALCON HEAVY R/B
1 60134U 24119B   26170.08506330 -.00000114  00000-0  00000-0 0  9999
2 60134   5.8985  66.8456 2953458 239.8170  87.5201  1.51714486 10980
Epoch: 2026-06-19T02:02Z
TLE epoch observation values (Epoch: 2026-06-19T02:02:29.469Z)
Latitude
0.00001°
Longitude
128.79114°
Altitude
27,925.02 km
Speed
3.283 km/s
True Right ascension
04h 26m 55s
True Declination
0° 00' 00"
Sunlit
Object was in daylight at epoch
Visualization orbit readout
Latitude
Unknown
Longitude
Unknown
Altitude
Unknown
Speed
Unknown
Apparent Right ascension
Unknown
Apparent Declination
Unknown
Sunlit
N/A
Visualization observer readout
Local Sidereal Time
10:18:42
Azimuth
Unknown
Elevation
Unknown
Doppler factor
Unknown
Orbital elements
Apogee altitude
35,065.471 km
Perigee altitude
16,166.74 km
Semi-major axis
31,994.242 km
Eccentricity
0.29535
Inclination
5.8985°
RAAN
66.8456°
Arg. of periapsis
239.817°
True anomaly
120.04493°
Mean anomaly
87.5201°
Eccentric anomaly
103.94354°
Mean motion
0.37926 °/min
Orbital period
949.22 mins
BSTAR
0
Loading maneuver chart data...
Computing Atmospheric mass density...
Loading historical data...
Loading historical data...
Loading historical data...
Loading historical data...
Loading historical data...
Loading historical data...
Loading historical data...
Other satellites on launch #119 in the year 2024 (2024-06-25 UTC)

Documentation

Showing up to 5 results
|